Tracking 31027 objects as of 19-Jul-2025
HD Live streaming from Space Station
objects crossing your sky now

STARLINK-5646

Track STARLINK-5646 now!
10-day predictions
STARLINK-5646 is classified as:


NORAD ID: 55461
Int'l Code: 2023-015N
Perigee: 565.3 km
Apogee: 567.1 km
Inclination: 43.0 °
Period: 95.8 minutes
Semi major axis: 6937 km
RCS: Unknown
Launch date: February 2, 2023
Source: United States (US)
Launch site: AIR FORCE EASTERN TEST RANGE (AFETR)
Your satellite tracking list
SPACEBEENZ-7
Track 1 satellite(s)




NASA's NSSDC Master Catalog

Two Line Element Set (TLE):
1 55461U 23015N   25199.30006113  .00000238  00000-0  32669-4 0  9995
2 55461  43.0024 159.7781 0001255 283.5162  76.5541 15.02544483135490
Source of the keplerian elements: AFSPC